User: anonymous   Login
Location: Stockholm
(59.3330°N, 18.0500°E)
Time: 07:34:57
(UTC+02:00)
Language:

VELOX 1 - Orbit

View from above orbital plane
View from above orbital plane
View from above satellite
View from above satellite

Ground track
Ground track

The orbit data is extracted from the following two-line orbital elements,

1 40057U 14034E   24197.85810356  .00005763  00000-0  65954-3 0  9990
2 40057  98.3399  54.4091 0010108  55.0706 305.1456 14.86366918541966
Epoch (UTC): 15 July 2024 20:35:40
Eccentricity: 0.0010108
inclination: 98.3399°
perigee height: 602 km
apogee height: 616 km
right ascension of ascending node: 54.4091°
argument of perigee: 55.0706°
revolutions per day: 14.86366918
mean anomaly at epoch: 305.1456°
orbit number at epoch: 54196

The dashed part of the orbit path shows where the satellite is in the earth's shadow,  

DLR